Regional Weather Roundup
Issued by NWS Little Rock, AR

Home | Current Version | Previous Version | Graphics & Text | Print | Product List | Glossary On
Versions: 1 2 3 4 5 6 7 8 9 10 11 12 13 14 15 16 17 18 19 20 21 22 23 24 25 26 27 28 29 30 31 32 33 34 35 36 37 38 39 40 41 42 43 44 45 46 47 48 49 50
000
ASUS44 KLZK 051905
RWRLZK

WEATHER ROUNDUP FOR ARKANSAS
NATIONAL WEATHER SERVICE LITTLE ROCK AR
100 PM CST FRI FEB 05 2016

NOTE: "FAIR" INDICATES FEW OR NO CLOUDS BELOW 12,000 FEET WITH NO
SIGNIFICANT WEATHER AND/OR OBSTRUCTIONS TO VISIBILITY.

ARZ001-003-010-029-052000-
NORTHWEST ARKANSAS

CITY           SKY/WX    TMP DP  RH WIND       PRES   REMARKS
FAYETTEVILLE   SUNNY     50  19  29 SW9       30.37F
FORT SMITH     SUNNY     54  16  22 VRB5      30.40F
HARRISON       CLOUDY    51  16  24 W6G18     30.36F
BENTONVILLE    SUNNY    N/A N/A N/A SW9       30.36F
ROGERS         SUNNY     50  19  29 SW9       30.36F
SILOAM SPGS    SUNNY     50  19  29 W13       30.36F
HIGHFILL       SUNNY     51  20  29 S12G18    30.35F
SPRINGDALE     SUNNY     50  16  25 W9G15     30.38F
$$

ARZ004-005-016-052000-
NORTH CENTRAL ARKANSAS

CITY           SKY/WX    TMP DP  RH WIND       PRES   REMARKS
BATESVILLE     SUNNY     54  18  24 SW7G17    30.42F
FLIPPIN        MOSUNNY   52  16  24 SW7       30.36F
MTN HOME       CLOUDY    50  18  28 VRB7      30.37F
$$

ARZ040-041-052000-
WEST CENTRAL ARKANSAS

CITY           SKY/WX    TMP DP  RH WIND       PRES   REMARKS
MENA           CLOUDY    54  18  24 SW5       30.40F
MOUNT IDA      MOSUNNY   52  13  21 VRB7      30.38F
$$

ARZ009-017-025-026-028-052000-
NORTHEAST ARKANSAS

CITY           SKY/WX    TMP DP  RH WIND       PRES   REMARKS
CORNING        FAIR      50  23  34 SW9       30.41F
JONESBORO      SUNNY     50  23  34 SW8       30.42F
NEWPORT        SUNNY     55  19  24 S9        30.43F
WALNUT RIDGE   SUNNY     52  16  24 SW9       30.41F
BLYTHEVILLE    SUNNY     54  26  34 SW8       30.43F
NW BLYTHEVILLE PTSUNNY   54  23  30 SW9G17    30.42F
$$

ARZ022-023-033-042-044-052000-
CENTRAL ARKANSAS

CITY           SKY/WX    TMP DP  RH WIND       PRES   REMARKS
LITTLE ROCK    PTSUNNY   55  15  20 W9        30.44F
N LITTLE ROCK  PTSUNNY   53  18  25 S7        30.44F
JACKSONVILLE   SUNNY     54  18  24 VRB1      30.42F
SEARCY         SUNNY     54  18  24 S9        30.44F
HOT SPRINGS    SUNNY     52  14  22 VRB7      30.43F
RUSSELLVILLE   PTSUNNY   50  20  30 S3        30.41F
CLINTON        FAIR      54  18  24 CALM      30.41F
$$

ARZ036-052000-
EAST ARKANSAS

CITY           SKY/WX    TMP DP  RH WIND       PRES   REMARKS
WEST MEMPHIS   SUNNY     50  24  36 VRB5      30.43F
$$

ARZ050-053-066-070-073-052000-
SOUTHWEST ARKANSAS

CITY           SKY/WX    TMP DP  RH WIND       PRES   REMARKS
ARKADELPHIA    FAIR      54  21  27 SW5       30.45F
CAMDEN         SUNNY     57  10  15 E5        30.45F
TEXARKANA      MOSUNNY   53  15  22 S5        30.43F
EL DORADO      CLOUDY    52  12  20 VRB3      30.45F
DE QUEEN       MOSUNNY   52  20  28 SW5       30.41F
$$

ARZ056-057-069-052000-
SOUTHEAST ARKANSAS

CITY           SKY/WX    TMP DP  RH WIND       PRES   REMARKS
PINE BLUFF     SUNNY     53  15  22 CALM      30.45F
STUTTGART      SUNNY     54  23  30 W7        30.46F
MONTICELLO     SUNNY     55  15  20 S6        30.44F

$$





USA.gov is the U.S. government's official web portal to all federal, state and local government web resources and services.